DW9987 Weather Reports


Display with metric or nautical units.
time (UTC)temp
F
wind
direction
speed
MPH
gust
MPH
rain 1hr
in
rain 24hr
in
rain mn
in
humidity
%
barometer
mb
20260905181533 85 355 1.0 5.0 0.00 0.00 0.00 74 1013.4
20260905180030 85 5 1.0 8.0 0.00 0.00 0.00 73 1013.5
20260905174529 85 360 3.0 6.0 0.00 0.00 0.00 74 1013.4
20260905173030 85 9 2.0 7.0 0.00 0.00 0.00 74 1013.4
20260905171533 85 11 0.0 8.0 0.00 0.00 0.00 76 1013.4
20260905170026 84 360 1.0 9.0 0.00 0.00 0.00 76 1013.6
20260905164533 84 36 2.0 8.0 0.00 0.00 0.00 77 1013.7
20260905163023 84 231 0.0 6.0 0.00 0.00 0.00 80 1013.7
20260905161521 83 355 3.0 7.0 0.00 0.00 0.00 78 1013.7
20260905160017 82 10 2.0 8.0 0.00 0.00 0.00 80 1013.8
20260905154517 81 335 1.0 7.0 0.00 0.00 0.00 83 1013.7
20260905153014 79 5 1.0 8.0 0.00 0.00 0.00 85 1013.7
20260905151513 79 283 2.0 9.0 0.00 0.00 0.00 86 1013.6
20260905150013 78 5 2.0 8.0 0.00 0.00 0.00 87 1013.4
20260905144509 78 360 1.0 9.0 0.00 0.00 0.00 87 1013.3
20260905143019 79 21 4.0 9.0 0.00 0.00 0.00 86 1013.1
20260905141509 80 9 3.0 9.0 0.00 0.00 0.00 85 1013.0
20260905140010 79 337 0.0 6.0 0.00 0.00 0.00 87 1012.9
20260905134510 78 350 0.0 3.0 0.00 0.00 0.00 91 1012.6
20260905133009 77 360 1.0 7.0 0.00 0.00 0.00 92 1012.8
20260905131510 77 5 1.0 4.0 0.00 0.00 0.00 94 1013.2
20260905130002 76 360 0.0 4.0 0.00 0.00 0.00 95 1012.6
20260905124602 76 5 0.0 3.0 0.00 0.00 0.00 95 1012.4
20260905123101 75 355 0.0 4.0 0.00 0.00 0.00 95 1012.2
20260905121559 75 336 0.0 0.0 0.00 0.00 0.00 95 1012.1
20260905120107 74 336 0.0 0.0 0.00 0.00 0.00 95 1012.0
20260905114555 75 336 0.0 0.0 0.00 0.00 0.00 95 1011.9
20260905113054 75 336 0.0 0.0 0.00 0.00 0.00 95 1011.6
20260905111608 75 336 0.0 0.0 0.00 0.00 0.00 94 1011.3
20260905110057 75 336 0.0 0.0 0.00 0.00 0.00 94 1011.3
20260905104551 75 336 0.0 0.0 0.00 0.00 0.00 94 1011.3
20260905103050 75 336 0.0 0.0 0.00 0.00 0.00 94 1011.4
20260905101551 75 336 0.0 0.0 0.00 0.00 0.00 94 1011.5
20260905100048 76 336 0.0 0.0 0.00 0.00 0.00 93 1011.4
20260905094547 76 336 0.0 0.0 0.00 0.00 0.00 94 1011.4
20260905093046 76 336 0.0 0.0 0.00 0.00 0.00 93 1011.4
20260905091544 76 336 0.0 0.0 0.00 0.00 0.00 93 1011.3
20260905090042 77 336 0.0 0.0 0.00 0.00 0.00 93 1011.4
20260905084541 77 337 0.0 0.0 0.00 0.00 0.00 93 1011.5
20260905083040 77 336 0.0 0.0 0.00 0.00 0.00 92 1011.5
20260905081539 77 336 0.0 0.0 0.00 0.00 0.00 92 1011.5
20260905080040 78 337 0.0 0.0 0.00 0.00 0.00 91 1011.5
20260905074540 78 337 0.0 2.0 0.00 0.00 0.00 91 1011.6
20260905073051 78 252 0.0 0.0 0.00 0.00 0.00 90 1011.4
20260905071541 79 252 0.0 0.0 0.00 0.00 0.00 90 1011.4
20260905070030 79 252 0.0 0.0 0.00 0.00 0.00 89 1011.5
20260905064529 79 252 0.0 0.0 0.00 0.00 0.00 88 1011.6
20260905063027 80 252 0.0 0.0 0.00 0.00 0.00 87 1011.7
20260905061529 80 252 0.0 1.0 0.00 0.00 0.00 86 1011.7
20260905060025 81 254 0.0 0.0 0.00 0.00 0.00 85 1011.7
20260905054537 81 254 0.0 0.0 0.00 0.00 0.00 84 1011.8
20260905053019 82 254 0.0 1.0 0.00 0.00 0.00 84 1011.7
20260905051519 82 256 0.0 1.0 0.00 0.00 0.00 84 1011.5
20260905050017 82 248 0.0 1.0 0.00 0.00 0.00 84 1011.6
20260905044518 81 201 0.0 2.0 0.00 0.00 0.00 86 1011.5
20260905043020 80 208 0.0 2.0 0.00 0.00 0.00 88 1011.7
20260905041514 80 209 0.0 3.0 0.00 0.00 0.00 89 1011.8
20260905040020 79 234 0.0 2.0 0.00 0.00 0.00 91 1011.9
20260905034513 79 238 0.0 0.0 0.00 0.00 0.00 92 1012.3
20260905033013 78 238 0.0 0.0 0.00 0.00 0.00 91 1012.5
20260905031513 79 237 0.0 0.0 0.00 0.00 0.00 91 1012.5
20260905030012 79 237 0.0 0.0 0.00 0.00 0.00 90 1012.4
20260905024513 79 237 0.0 0.0 0.00 0.00 0.00 90 1012.3
20260905023018 79 237 0.0 0.0 0.00 0.00 0.00 89 1012.2
20260905021510 79 237 0.0 0.0 0.00 0.00 0.00 89 1012.0
20260905020010 80 237 0.0 0.0 0.00 0.00 0.00 89 1011.7
20260905014509 80 237 0.0 0.0 0.00 0.00 0.00 89 1011.5
20260905013009 80 237 0.0 0.0 0.00 0.00 0.00 88 1011.4
20260905011510 81 237 0.0 0.0 0.00 0.00 0.00 88 1011.4
20260905010011 81 237 0.0 0.0 0.00 0.00 0.00 87 1011.0
20260905004508 82 237 0.0 0.0 0.00 0.00 0.00 86 1011.0
20260905003007 83 237 0.0 0.0 0.00 0.00 0.00 86 1010.8
20260905001507 84 238 0.0 0.0 0.00 0.00 0.00 83 1011.1
20260905000007 85 238 0.0 0.0 0.00 0.00 0.00 82 1011.1
20260904234506 86 237 0.0 0.0 0.00 0.00 0.00 79 1010.9
20260904233004 88 237 0.0 1.0 0.00 0.00 0.00 75 1011.0
20260904231502 90 244 0.0 4.0 0.00 0.00 0.00 67 1011.1
20260904230000 90 266 0.0 4.0 0.00 0.00 0.00 67 1011.2
20260904224501 91 188 1.0 5.0 0.00 0.00 0.00 67 1011.1
20260904223103 91 188 1.0 6.0 0.00 0.00 0.00 66 1011.4
20260904221602 91 184 1.0 5.0 0.00 0.00 0.00 65 1011.4
20260904220059 91 193 1.0 6.0 0.00 0.00 0.00 68 1011.4
20260904214557 90 205 0.0 2.0 0.00 0.00 0.00 74 1011.2
20260904213057 90 225 0.0 3.0 0.00 0.00 0.00 68 1011.1
20260904211557 91 192 2.0 7.0 0.00 0.00 0.00 68 1011.1
20260904210059 91 202 4.0 8.0 0.00 0.00 0.00 67 1011.2
20260904204555 91 224 2.0 6.0 0.00 0.00 0.00 67 1011.4
20260904203053 90 197 0.0 5.0 0.00 0.00 0.00 72 1011.7
20260904201610 90 215 2.0 4.0 0.00 0.00 0.00 68 1011.9
20260904200050 90 203 0.0 6.0 0.00 0.00 0.00 69 1012.2
20260904194602 90 203 1.0 5.0 0.00 0.00 0.00 68 1012.3
20260904193045 89 183 0.0 5.0 0.00 0.00 0.00 68 1012.7
20260904191544 88 171 1.0 5.0 0.00 0.00 0.00 70 1012.9
20260904190041 88 207 1.0 5.0 0.00 0.00 0.00 68 1013.1
20260904184540 88 168 0.0 4.0 0.00 0.00 0.00 68 1013.1
20260904183037 87 202 0.0 3.0 0.00 0.00 0.00 68 1013.3